Location: Los Ranchitos
(37.9930°N, 122.5425°W)
Time: 08:37:52
(UTC+00:00)

Cosmos 1707 - Pass Details

Date: 21 September 2020
Orbit: 515 x 530 km, 82.5° (Epoch: 28 October)

Event Time Altitude Azimuth Distance (km) Brightness Sun altitude
Rises 02:48:36 0° 4° (N) 2,643 6.4 -8.6°
Reaches altitude 10° 02:50:57 10° 15° (NNE) 1,750 5.3 -9.0°
Maximum altitude 02:54:20 29° 78° (ENE) 957 3.5 -9.7°
Drops below altitude 10° 02:57:42 10° 140° (SE) 1,736 4.9 -10.3°
Enters shadow 02:58:43 - 146° (SE) 2,114 5.4 -10.5°
